,,,PA_Meas_PMT16A,,PR_Meas_QMR101_102,,RH_Meas_QMH101,,SR_Meas_QMS101,,TA_Meas_QMH101,,GenWind,,GenWind,
date,time,status,PA,status,PR,status,RH,status,SR,status,TA,status,DirAvg,status,SpdAvg,
2009-12-09, 00:00:04,VALID,1004.02,VALID,0,VALID,84.4593,VALID,0,VALID,25.6292,VALID,348,VALID,0.471094,
2009-12-09, 00:01:04,VALID,1004,VALID,0,VALID,84.4746,VALID,0.100563,VALID,25.5902,VALID,349,VALID,0.985937,
2009-12-09, 00:02:04,VALID,1004.01,VALID,0,VALID,84.5509,VALID,0,VALID,25.6116,VALID,341,VALID,0.790625,
2009-12-09, 00:03:04,VALID,1004.03,VALID,0,VALID,84.7263,VALID,0,VALID,25.5707,VALID,350,VALID,0.597266,
2009-12-09, 00:04:04,VALID,1004.02,VALID,0,VALID,84.8103,VALID,0,VALID,25.5532,VALID,341,VALID,0.853516,
2009-12-09, 00:05:04,VALID,1004.01,VALID,0,VALID,84.7569,VALID,0,VALID,25.5532,VALID,334,VALID,0.482422,
2009-12-09, 00:06:04,VALID,1003.97,VALID,0,VALID,84.7645,VALID,0,VALID,25.5337,VALID,352,VALID,0.773828,
2009-12-09, 00:07:04,VALID,1003.98,VALID,0,VALID,84.8866,VALID,0,VALID,25.5142,VALID,350,VALID,0.832812,
2009-12-09, 00:08:04,VALID,1003.94,VALID,0,VALID,84.9247,VALID,0,VALID,25.5142,VALID,345,VALID,1.15469,
2009-12-09, 00:09:04,VALID,1003.93,VALID,0,VALID,85.062,VALID,0,VALID,25.4948,VALID,353,VALID,1.09375,
2009-12-09, 00:10:04,VALID,1003.9,VALID,0,VALID,85.2833,VALID,0,VALID,25.4539,VALID,343,VALID,0.957031,
2009-12-09, 00:11:04,VALID,1003.86,VALID,0,VALID,85.3595,VALID,0,VALID,25.4558,VALID,3,VALID,1.16289,
2009-12-09, 00:12:04,VALID,1003.81,VALID,0,VALID,85.3977,VALID,0,VALID,25.4363,VALID,347,VALID,0.794922,
2009-12-09, 00:13:04,VALID,1003.78,VALID,0,VALID,85.5274,VALID,0,VALID,25.3974,VALID,2,VALID,0.958594,
2009-12-09, 00:14:04,VALID,1003.78,VALID,0,VALID,85.535,VALID,0,VALID,25.3779,VALID,344,VALID,1.9043,
2009-12-09, 00:15:04,VALID,1003.77,VALID,0,VALID,85.6952,VALID,0,VALID,25.337,VALID,351,VALID,0.774609,
2009-12-09, 00:16:04,VALID,1003.75,VALID,0,VALID,85.6952,VALID,0,VALID,25.3584,VALID,337,VALID,1.4375,
2009-12-09, 00:17:04,VALID,1003.72,VALID,0,VALID,85.7562,VALID,0,VALID,25.339,VALID,346,VALID,1.0832,
2009-12-09, 00:18:04,VALID,1003.69,VALID,0,VALID,85.741,VALID,0,VALID,25.2981,VALID,349,VALID,1.44492,
2009-12-09, 00:19:04,VALID,1003.64,VALID,0,VALID,85.741,VALID,0,VALID,25.3195,VALID,345,VALID,1.45664,
2009-12-09, 00:20:04,VALID,1003.6,VALID,0,VALID,85.802,VALID,0,VALID,25.2981,VALID,5,VALID,0.659766,
2009-12-09, 00:21:04,VALID,1003.54,VALID,0,VALID,85.7868,VALID,0,VALID,25.2786,VALID,344,VALID,1.43438,
2009-12-09, 00:22:04,VALID,1003.49,VALID,0,VALID,85.8478,VALID,0,VALID,25.2981,VALID,345,VALID,0.808594,
2009-12-09, 00:23:04,VALID,1003.47,VALID,0,VALID,85.7791,VALID,0,VALID,25.2786,VALID,332,VALID,1.09258,
2009-12-09, 00:24:04,VALID,1003.43,VALID,0,VALID,85.9012,VALID,0,VALID,25.2786,VALID,342,VALID,1.34492,
2009-12-09, 00:25:04,VALID,1003.43,VALID,0,VALID,85.8478,VALID,0,VALID,25.2592,VALID,336,VALID,1.2457,
2009-12-09, 00:26:04,VALID,1003.39,VALID,0,VALID,85.8096,VALID,0,VALID,25.3,VALID,358,VALID,1.18984,
2009-12-09, 00:27:04,VALID,1003.37,VALID,0,VALID,85.8096,VALID,0,VALID,25.3,VALID,358,VALID,1.56758,
2009-12-09, 00:28:04,VALID,1003.32,VALID,0,VALID,85.7105,VALID,0,VALID,25.3176,VALID,328,VALID,1.05586,
2009-12-09, 00:29:04,VALID,1003.31,VALID,0,VALID,85.7257,VALID,0,VALID,25.3195,VALID,8,VALID,1.39922,
2009-12-09, 00:30:04,VALID,1003.32,VALID,0,VALID,85.6494,VALID,0,VALID,25.339,VALID,1,VALID,0.852734,
2009-12-09, 00:31:04,VALID,1003.34,VALID,0,VALID,85.6876,VALID,0,VALID,25.339,VALID,357,VALID,1.09258,
2009-12-09, 00:32:04,VALID,1003.36,VALID,0,VALID,85.7028,VALID,0,VALID,25.337,VALID,342,VALID,1.31328,
2009-12-09, 00:33:04,VALID,1003.36,VALID,0,VALID,85.7028,VALID,0,VALID,25.3584,VALID,2,VALID,1.09492,
2009-12-09, 00:34:04,VALID,1003.34,VALID,0,VALID,85.7334,VALID,0,VALID,25.3584,VALID,5,VALID,1.04844,
2009-12-09, 00:35:04,VALID,1003.33,VALID,0,VALID,85.8325,VALID,0,VALID,25.3176,VALID,343,VALID,1.13945,
2009-12-09, 00:36:04,VALID,1003.3,VALID,0,VALID,85.8402,VALID,0,VALID,25.3176,VALID,306,VALID,0.681641,
2009-12-09, 00:37:04,VALID,1003.26,VALID,0,VALID,85.9012,VALID,0,VALID,25.2981,VALID,3,VALID,1.13125,
2009-12-09, 00:38:04,VALID,1003.25,VALID,0,VALID,85.9165,VALID,0,VALID,25.2786,VALID,356,VALID,0.839453,
2009-12-09, 00:39:04,VALID,1003.18,VALID,0,VALID,85.947,VALID,0,VALID,25.3,VALID,356,VALID,0.957031,
2009-12-09, 00:40:04,VALID,1003.19,VALID,0,VALID,85.9546,VALID,0,VALID,25.2786,VALID,360,VALID,0.891797,
2009-12-09, 00:41:04,VALID,1003.14,VALID,0,VALID,86.008,VALID,0,VALID,25.2806,VALID,347,VALID,0.730469,
2009-12-09, 00:42:04,VALID,1003.12,VALID,0,VALID,85.8936,VALID,0.100563,VALID,25.2592,VALID,352,VALID,1.20859,
2009-12-09, 00:43:04,VALID,1003.09,VALID,0,VALID,85.8554,VALID,0,VALID,25.3,VALID,353,VALID,1.16953,
2009-12-09, 00:44:04,VALID,1003.13,VALID,0,VALID,85.8554,VALID,0,VALID,25.2786,VALID,335,VALID,0.659375,
2009-12-09, 00:45:04,VALID,1003.14,VALID,0,VALID,85.7715,VALID,0,VALID,25.3,VALID,351,VALID,0.837109,
2009-12-09, 00:46:04,VALID,1003.15,VALID,0,VALID,85.741,VALID,0,VALID,25.3,VALID,341,VALID,0.647266,
2009-12-09, 00:47:04,VALID,1003.19,VALID,0,VALID,85.8173,VALID,0,VALID,25.2786,VALID,354,VALID,0.889844,
2009-12-09, 00:48:04,VALID,1003.21,VALID,0,VALID,85.7334,VALID,0,VALID,25.3,VALID,350,VALID,1.10547,
2009-12-09, 00:49:04,VALID,1003.28,VALID,0,VALID,85.6876,VALID,0,VALID,25.3,VALID,334,VALID,1.34414,
2009-12-09, 00:50:04,VALID,1003.26,VALID,0,VALID,85.7868,VALID,0,VALID,25.2806,VALID,302,VALID,0.770312,
2009-12-09, 00:51:04,VALID,1003.25,VALID,0,VALID,85.7868,VALID,0,VALID,25.2611,VALID,356,VALID,0.714453,
2009-12-09, 00:52:04,VALID,1003.27,VALID,0,VALID,85.8631,VALID,0,VALID,25.2611,VALID,357,VALID,1.11094,
2009-12-09, 00:53:04,VALID,1003.28,VALID,0,VALID,85.7715,VALID,0,VALID,25.2611,VALID,358,VALID,1.74023,
2009-12-09, 00:54:04,VALID,1003.29,VALID,0,VALID,85.6113,VALID,0,VALID,25.2592,VALID,351,VALID,1.24766,
2009-12-09, 00:55:04,VALID,1003.3,VALID,0,VALID,85.7028,VALID,0,VALID,25.2592,VALID,15,VALID,1.09141,
2009-12-09, 00:56:04,VALID,1003.32,VALID,0,VALID,85.5503,VALID,0,VALID,25.2786,VALID,1,VALID,1.13047,
2009-12-09, 00:57:04,VALID,1003.33,VALID,0,VALID,85.4892,VALID,0,VALID,25.2786,VALID,343,VALID,1.05586,
2009-12-09, 00:58:04,VALID,1003.31,VALID,0,VALID,85.4435,VALID,0.100563,VALID,25.2806,VALID,357,VALID,1.42969,
2009-12-09, 00:59:04,VALID,1003.31,VALID,0,VALID,85.4511,VALID,0,VALID,25.2786,VALID,351,VALID,0.774219,
2009-12-09, 01:00:04,VALID,1003.33,VALID,0,VALID,85.3061,VALID,0,VALID,25.3,VALID,346,VALID,1.20391,
2009-12-09, 01:01:04,VALID,1003.38,VALID,0,VALID,85.1765,VALID,0.100563,VALID,25.3176,VALID,351,VALID,1.14688,
2009-12-09, 01:02:04,VALID,1003.38,VALID,0,VALID,85.2375,VALID,0,VALID,25.3584,VALID,5,VALID,1.17891,
2009-12-09, 01:03:04,VALID,1003.44,VALID,0,VALID,84.5967,VALID,0,VALID,25.3955,VALID,348,VALID,0.814062,
2009-12-09, 01:04:04,VALID,1003.43,VALID,0,VALID,84.4441,VALID,0.100563,VALID,25.4149,VALID,352,VALID,1.84102,
2009-12-09, 01:05:04,VALID,1003.43,VALID,0,VALID,84.528,VALID,0,VALID,25.4539,VALID,358,VALID,1.16406,
2009-12-09, 01:06:04,VALID,1003.44,VALID,0,VALID,84.383,VALID,0,VALID,25.4734,VALID,344,VALID,0.857031,
2009-12-09, 01:07:04,VALID,1003.47,VALID,0,VALID,84.5509,VALID,0,VALID,25.4539,VALID,352,VALID,0.528906,
2009-12-09, 01:08:04,VALID,1003.45,VALID,0,VALID,84.6653,VALID,0,VALID,25.4558,VALID,358,VALID,0.757031,
2009-12-09, 01:09:04,VALID,1003.44,VALID,0,VALID,84.6348,VALID,0.100563,VALID,25.4558,VALID,348,VALID,0.736719,
2009-12-09, 01:10:04,VALID,1003.41,VALID,0,VALID,84.6882,VALID,0,VALID,25.4363,VALID,2,VALID,0.871875,
2009-12-09, 01:11:04,VALID,1003.42,VALID,0,VALID,84.6348,VALID,0,VALID,25.4558,VALID,2,VALID,0.553125,
2009-12-09, 01:12:04,VALID,1003.4,VALID,0,VALID,84.7492,VALID,0,VALID,25.4149,VALID,352,VALID,0.652734,
2009-12-09, 01:13:04,VALID,1003.36,VALID,0,VALID,84.8408,VALID,0,VALID,25.4363,VALID,283,VALID,0.208594,
2009-12-09, 01:14:04,VALID,1003.38,VALID,0,VALID,84.6653,VALID,0,VALID,25.4363,VALID,354,VALID,0.940625,
2009-12-09, 01:15:04,VALID,1003.4,VALID,0,VALID,84.8713,VALID,0,VALID,25.4169,VALID,346,VALID,0.0121094,
2009-12-09, 01:16:04,VALID,1003.39,VALID,0,VALID,84.94,VALID,0,VALID,25.4169,VALID,5,VALID,0.401563,
2009-12-09, 01:17:04,VALID,1003.39,VALID,0,VALID,84.9018,VALID,0,VALID,25.3974,VALID,358,VALID,0.378125,
2009-12-09, 01:18:04,VALID,1003.39,VALID,0,VALID,84.9781,VALID,0,VALID,25.4188,VALID,351,VALID,0.648438,
2009-12-09, 01:19:04,VALID,1003.37,VALID,0,VALID,84.9552,VALID,0,VALID,25.3779,VALID,348,VALID,0.55625,
2009-12-09, 01:20:04,VALID,1003.37,VALID,0,VALID,85.0239,VALID,0,VALID,25.3779,VALID,346,VALID,0.107031,
2009-12-09, 01:21:04,VALID,1003.34,VALID,0,VALID,84.8332,VALID,0,VALID,25.3779,VALID,291,VALID,0.573438,
2009-12-09, 01:22:04,VALID,1003.33,VALID,0,VALID,84.856,VALID,0,VALID,25.3974,VALID,340,VALID,0.775391,
2009-12-09, 01:23:04,VALID,1003.34,VALID,0,VALID,84.467,VALID,0,VALID,25.3779,VALID,317,VALID,0.503516,
2009-12-09, 01:24:04,VALID,1003.31,VALID,0,VALID,84.4899,VALID,0,VALID,25.4383,VALID,343,VALID,0.560547,
2009-12-09, 01:25:04,VALID,1003.29,VALID,0,VALID,84.3678,VALID,0,VALID,25.4577,VALID,355,VALID,0.836719,
2009-12-09, 01:26:04,VALID,1003.25,VALID,0,VALID,84.2534,VALID,0,VALID,25.4363,VALID,347,VALID,1.54219,
2009-12-09, 01:27:04,VALID,1003.22,VALID,0,VALID,84.0703,VALID,0,VALID,25.4967,VALID,338,VALID,0.741797,
2009-12-09, 01:28:04,VALID,1003.18,VALID,0,VALID,83.9787,VALID,0,VALID,25.4714,VALID,308,VALID,0.930469,
2009-12-09, 01:29:04,VALID,1003.16,VALID,0,VALID,83.9406,VALID,0,VALID,25.5123,VALID,335,VALID,0.610547,
2009-12-09, 01:30:04,VALID,1003.13,VALID,0,VALID,83.8872,VALID,0,VALID,25.5123,VALID,346,VALID,0.807813,
2009-12-09, 01:31:04,VALID,1003.12,VALID,0,VALID,84.0855,VALID,0.100563,VALID,25.4928,VALID,25,VALID,0.386328,
2009-12-09, 01:32:04,VALID,1003.1,VALID,0,VALID,84.1237,VALID,0,VALID,25.4734,VALID,329,VALID,0.621875,
2009-12-09, 01:33:04,VALID,1003.08,VALID,0,VALID,84.2305,VALID,0,VALID,25.4539,VALID,15,VALID,0.676562,
2009-12-09, 01:34:04,VALID,1003.09,VALID,0,VALID,84.2305,VALID,0.100563,VALID,25.4539,VALID,5,VALID,0.934375,
2009-12-09, 01:35:04,VALID,1003.11,VALID,0,VALID,84.2839,VALID,0,VALID,25.4753,VALID,11,VALID,0.522266,
2009-12-09, 01:36:04,VALID,1003.12,VALID,0,VALID,84.3144,VALID,0,VALID,25.4539,VALID,351,VALID,0.896484,
2009-12-09, 01:37:04,VALID,1003.11,VALID,0,VALID,84.4136,VALID,0,VALID,25.4558,VALID,357,VALID,0.568359,
2009-12-09, 01:38:04,VALID,1003.09,VALID,0,VALID,84.383,VALID,0,VALID,25.413,VALID,345,VALID,0.989844,
2009-12-09, 01:39:04,VALID,1003.07,VALID,0,VALID,84.4822,VALID,0,VALID,25.4344,VALID,243,VALID,0.1125,
2009-12-09, 01:40:04,VALID,1003.05,VALID,0,VALID,84.1694,VALID,0,VALID,25.4558,VALID,332,VALID,0.726172,
2009-12-09, 01:41:04,VALID,1003.02,VALID,0,VALID,84.1466,VALID,0,VALID,25.4539,VALID,322,VALID,0.675391,
2009-12-09, 01:42:04,VALID,1003.04,VALID,0,VALID,84.1313,VALID,0,VALID,25.4753,VALID,323,VALID,0.78125,
2009-12-09, 01:43:04,VALID,1003.04,VALID,0,VALID,84.0931,VALID,0.100563,VALID,25.4734,VALID,317,VALID,0.3625,
2009-12-09, 01:44:04,VALID,1003.02,VALID,0,VALID,84.2457,VALID,0,VALID,25.4539,VALID,332,VALID,0.430859,
2009-12-09, 01:45:04,VALID,1003.04,VALID,0,VALID,84.2991,VALID,0,VALID,25.4539,VALID,342,VALID,0.427344,
2009-12-09, 01:46:04,VALID,1003.02,VALID,0,VALID,84.322,VALID,0,VALID,25.4948,VALID,269,VALID,0.433203,
2009-12-09, 01:47:04,VALID,1003.01,VALID,0,VALID,84.2457,VALID,0,VALID,25.4344,VALID,352,VALID,1.00234,
2009-12-09, 01:48:04,VALID,1003.01,VALID,0,VALID,84.2305,VALID,0,VALID,25.4753,VALID,21,VALID,0.308984,
2009-12-09, 01:49:04,VALID,1003.03,VALID,0,VALID,84.383,VALID,0,VALID,25.4539,VALID,296,VALID,0.181641,
2009-12-09, 01:50:04,VALID,1003.05,VALID,0,VALID,84.4746,VALID,0,VALID,25.4363,VALID,286,VALID,0.411719,
2009-12-09, 01:51:04,VALID,1003.1,VALID,0,VALID,84.5661,VALID,0,VALID,25.4363,VALID,346,VALID,0.186719,
2009-12-09, 01:52:04,VALID,1003.09,VALID,0,VALID,84.6272,VALID,0,VALID,25.3955,VALID,358,VALID,0.944922,
2009-12-09, 01:53:04,VALID,1003.12,VALID,0,VALID,84.7187,VALID,0,VALID,25.376,VALID,290,VALID,0.132813,
2009-12-09, 01:54:04,VALID,1003.13,VALID,0,VALID,84.8103,VALID,0.100563,VALID,25.3565,VALID,292,VALID,0.623828,
2009-12-09, 01:55:04,VALID,1003.13,VALID,0,VALID,85.0239,VALID,0,VALID,25.337,VALID,30,VALID,0.491016,
2009-12-09, 01:56:04,VALID,1003.12,VALID,0,VALID,85.0696,VALID,0,VALID,25.3176,VALID,292,VALID,0.746484,
2009-12-09, 01:57:04,VALID,1003.12,VALID,0,VALID,85.1688,VALID,0,VALID,25.2981,VALID,299,VALID,0.356641,
2009-12-09, 01:58:04,VALID,1003.12,VALID,0,VALID,85.2375,VALID,0,VALID,25.2786,VALID,354,VALID,0.701953,
2009-12-09, 01:59:04,VALID,1003.14,VALID,0,VALID,85.2451,VALID,0,VALID,25.2825,VALID,333,VALID,0.45,
2009-12-09, 02:00:04,VALID,1003.14,VALID,0,VALID,85.3748,VALID,0,VALID,25.2611,VALID,349,VALID,1.37773,
2009-12-09, 02:01:04,VALID,1003.13,VALID,0,VALID,85.5503,VALID,0,VALID,25.2435,VALID,329,VALID,0.317969,
2009-12-09, 02:02:04,VALID,1003.13,VALID,0,VALID,85.6266,VALID,0,VALID,25.263,VALID,346,VALID,0.466797,
2009-12-09, 02:03:04,VALID,1003.13,VALID,0,VALID,85.741,VALID,0,VALID,25.2435,VALID,312,VALID,0.106641,
2009-12-09, 02:04:04,VALID,1003.14,VALID,0,VALID,85.8325,VALID,0,VALID,25.2027,VALID,338,VALID,0.403906,
2009-12-09, 02:05:04,VALID,1003.15,VALID,0,VALID,86.0919,VALID,0,VALID,25.1832,VALID,338,VALID,0,
2009-12-09, 02:06:04,VALID,1003.18,VALID,0,VALID,86.1758,VALID,0,VALID,25.1637,VALID,338,VALID,0,
2009-12-09, 02:07:04,VALID,1003.17,VALID,0,VALID,86.3437,VALID,0,VALID,25.1442,VALID,338,VALID,0.0203125,
2009-12-09, 02:08:04,VALID,1003.19,VALID,0,VALID,86.42,VALID,0,VALID,25.1034,VALID,338,VALID,0,
2009-12-09, 02:09:04,VALID,1003.24,VALID,0,VALID,86.5039,VALID,0,VALID,25.1248,VALID,343,VALID,0.296875,
2009-12-09, 02:10:04,VALID,1003.25,VALID,0,VALID,86.5573,VALID,0,VALID,25.0858,VALID,290,VALID,0.637109,
2009-12-09, 02:11:04,VALID,1003.23,VALID,0,VALID,86.7175,VALID,0,VALID,25.1072,VALID,338,VALID,0.146484,
2009-12-09, 02:12:04,VALID,1003.26,VALID,0,VALID,86.7251,VALID,0,VALID,25.0858,VALID,352,VALID,0.448047,
2009-12-09, 02:13:04,VALID,1003.29,VALID,0,VALID,86.748,VALID,0,VALID,25.1034,VALID,321,VALID,0.415234,
2009-12-09, 02:14:04,VALID,1003.24,VALID,0,VALID,86.7099,VALID,0,VALID,25.1034,VALID,306,VALID,0.519922,
2009-12-09, 02:15:04,VALID,1003.31,VALID,0,VALID,86.7404,VALID,0.100563,VALID,25.1248,VALID,266,VALID,0.380859,
2009-12-09, 02:16:04,VALID,1003.37,VALID,0,VALID,86.7327,VALID,0,VALID,25.1229,VALID,289,VALID,0.677344,
2009-12-09, 02:17:04,VALID,1003.38,VALID,0,VALID,86.4962,VALID,0,VALID,25.1423,VALID,290,VALID,0.93125,
2009-12-09, 02:18:04,VALID,1003.42,VALID,0,VALID,86.3971,VALID,0,VALID,25.1813,VALID,282,VALID,0.659375,
2009-12-09, 02:19:04,VALID,1003.43,VALID,0,VALID,86.5191,VALID,0,VALID,25.2221,VALID,282,VALID,0.333984,
2009-12-09, 02:20:04,VALID,1003.42,VALID,0,VALID,86.3284,VALID,0,VALID,25.2416,VALID,282,VALID,1.1668,
2009-12-09, 02:21:04,VALID,1003.4,VALID,0,VALID,86.4276,VALID,0,VALID,25.2202,VALID,291,VALID,0.152344,
2009-12-09, 02:22:04,VALID,1003.38,VALID,0,VALID,86.42,VALID,0,VALID,25.2202,VALID,276,VALID,0.517187,
2009-12-09, 02:23:04,VALID,1003.37,VALID,0,VALID,86.42,VALID,0,VALID,25.2202,VALID,291,VALID,0.49375,
2009-12-09, 02:24:04,VALID,1003.36,VALID,0,VALID,86.6183,VALID,0,VALID,25.2007,VALID,301,VALID,0.0816406,
2009-12-09, 02:25:04,VALID,1003.35,VALID,0,VALID,86.5496,VALID,0,VALID,25.2007,VALID,302,VALID,0.279297,
2009-12-09, 02:26:04,VALID,1003.32,VALID,0,VALID,86.5725,VALID,0,VALID,25.2221,VALID,288,VALID,0.827734,
2009-12-09, 02:27:04,VALID,1003.31,VALID,0,VALID,86.7175,VALID,0,VALID,25.2007,VALID,285,VALID,0.130469,
2009-12-09, 02:28:04,VALID,1003.31,VALID,0,VALID,86.7556,VALID,0,VALID,25.1813,VALID,287,VALID,0.401172,
2009-12-09, 02:29:04,VALID,1003.31,VALID,0,VALID,86.8319,VALID,0,VALID,25.2027,VALID,290,VALID,0.389844,
2009-12-09, 02:30:04,VALID,1003.33,VALID,0,VALID,86.8929,VALID,0,VALID,25.1618,VALID,290,VALID,0.303125,
2009-12-09, 02:31:04,VALID,1003.32,VALID,0,VALID,86.9616,VALID,0,VALID,25.2027,VALID,290,VALID,0.491016,
2009-12-09, 02:32:04,VALID,1003.33,VALID,0,VALID,87.0226,VALID,0,VALID,25.1832,VALID,290,VALID,0.0910156,
2009-12-09, 02:33:04,VALID,1003.33,VALID,0,VALID,87.1066,VALID,0.100563,VALID,25.1618,VALID,290,VALID,0.00742187,
2009-12-09, 02:34:04,VALID,1003.34,VALID,0,VALID,87.1828,VALID,0,VALID,25.1442,VALID,290,VALID,0,
2009-12-09, 02:35:04,VALID,1003.34,VALID,0,VALID,87.2896,VALID,0,VALID,25.1015,VALID,286,VALID,0.0316406,
2009-12-09, 02:36:04,VALID,1003.36,VALID,0,VALID,87.4041,VALID,0,VALID,25.1034,VALID,286,VALID,0,
2009-12-09, 02:37:04,VALID,1003.36,VALID,0,VALID,87.5338,VALID,0.100563,VALID,25.1034,VALID,286,VALID,0,
2009-12-09, 02:38:04,VALID,1003.39,VALID,0,VALID,87.8008,VALID,0.100563,VALID,25.1034,VALID,286,VALID,0.00078125,
2009-12-09, 02:39:04,VALID,1003.42,VALID,0,VALID,87.7092,VALID,0,VALID,25.0644,VALID,291,VALID,0.600781,
2009-12-09, 02:40:04,VALID,1003.44,VALID,0,VALID,87.6635,VALID,0.100563,VALID,25.0839,VALID,286,VALID,0.584766,
2009-12-09, 02:41:04,VALID,1003.48,VALID,0,VALID,87.5719,VALID,0,VALID,25.1248,VALID,282,VALID,0.589063,
2009-12-09, 02:42:04,VALID,1003.5,VALID,0,VALID,87.549,VALID,0,VALID,25.1034,VALID,283,VALID,0.457812,
2009-12-09, 02:43:04,VALID,1003.49,VALID,0,VALID,87.5414,VALID,0,VALID,25.1423,VALID,284,VALID,0.296484,
2009-12-09, 02:44:04,VALID,1003.51,VALID,0,VALID,87.4117,VALID,0.100563,VALID,25.1423,VALID,303,VALID,0.457812,
2009-12-09, 02:45:04,VALID,1003.53,VALID,0,VALID,87.2515,VALID,0.100563,VALID,25.1423,VALID,299,VALID,0.326953,
2009-12-09, 02:46:04,VALID,1003.49,VALID,0,VALID,87.1828,VALID,0,VALID,25.1832,VALID,329,VALID,0.264062,
2009-12-09, 02:47:04,VALID,1003.5,VALID,0,VALID,87.1218,VALID,0,VALID,25.1813,VALID,296,VALID,0.216406,
2009-12-09, 02:48:04,VALID,1003.51,VALID,0,VALID,87.1142,VALID,0,VALID,25.2027,VALID,336,VALID,0.351953,
2009-12-09, 02:49:04,VALID,1003.5,VALID,0,VALID,87.0989,VALID,0.100563,VALID,25.2007,VALID,336,VALID,0.407422,
2009-12-09, 02:50:04,VALID,1003.47,VALID,0,VALID,87.1523,VALID,0,VALID,25.1813,VALID,337,VALID,0.453906,
2009-12-09, 02:51:04,VALID,1003.48,VALID,0,VALID,87.2057,VALID,0,VALID,25.1423,VALID,344,VALID,0.660937,
2009-12-09, 02:52:04,VALID,1003.5,VALID,0,VALID,87.3736,VALID,0,VALID,25.1248,VALID,332,VALID,0.408984,
2009-12-09, 02:53:04,VALID,1003.52,VALID,0,VALID,87.5872,VALID,0,VALID,25.0644,VALID,332,VALID,0.255469,
2009-12-09, 02:54:04,VALID,1003.51,VALID,0,VALID,87.8237,VALID,0,VALID,25.0255,VALID,332,VALID,0,
2009-12-09, 02:55:04,VALID,1003.52,VALID,0,VALID,88.0068,VALID,0,VALID,25.0079,VALID,332,VALID,0,
2009-12-09, 02:56:04,VALID,1003.5,VALID,0,VALID,88.1822,VALID,0,VALID,24.9476,VALID,336,VALID,0.263672,
2009-12-09, 02:57:04,VALID,1003.53,VALID,0,VALID,88.289,VALID,0,VALID,24.9087,VALID,336,VALID,0.249609,
2009-12-09, 02:58:04,VALID,1003.54,VALID,0,VALID,88.3958,VALID,0,VALID,24.9106,VALID,336,VALID,0.359766,
2009-12-09, 02:59:04,VALID,1003.53,VALID,0,VALID,88.4569,VALID,0,VALID,24.8697,VALID,336,VALID,0.348437,
2009-12-09, 03:00:04,VALID,1003.53,VALID,0,VALID,88.5484,VALID,0,VALID,24.8697,VALID,337,VALID,0.401563,
2009-12-09, 03:01:04,VALID,1003.57,VALID,0,VALID,88.6171,VALID,0,VALID,24.8503,VALID,278,VALID,0.345313,
2009-12-09, 03:02:04,VALID,1003.55,VALID,0,VALID,88.6476,VALID,0,VALID,24.8503,VALID,280,VALID,0.373828,
2009-12-09, 03:03:04,VALID,1003.55,VALID,0,VALID,88.6705,VALID,0,VALID,24.8095,VALID,280,VALID,0,
2009-12-09, 03:04:04,VALID,1003.55,VALID,0,VALID,88.7086,VALID,0,VALID,24.8308,VALID,281,VALID,0,
2009-12-09, 03:05:04,VALID,1003.55,VALID,0,VALID,88.7849,VALID,0,VALID,24.8113,VALID,284,VALID,0.000390625,
2009-12-09, 03:06:04,VALID,1003.53,VALID,0,VALID,88.907,VALID,0,VALID,24.7743,VALID,348,VALID,0.434766,
2009-12-09, 03:07:04,VALID,1003.57,VALID,0,VALID,89.0595,VALID,0.100563,VALID,24.714,VALID,348,VALID,0.480469,
2009-12-09, 03:08:04,VALID,1003.56,VALID,0,VALID,89.3037,VALID,0,VALID,24.6361,VALID,349,VALID,0.521094,
2009-12-09, 03:09:04,VALID,1003.55,VALID,0,VALID,89.5325,VALID,0,VALID,24.5582,VALID,354,VALID,0.597656,
2009-12-09, 03:10:04,VALID,1003.56,VALID,0,VALID,89.7996,VALID,0,VALID,24.4609,VALID,355,VALID,0.467187,
2009-12-09, 03:11:04,VALID,1003.56,VALID,0,VALID,90.0666,VALID,0,VALID,24.383,VALID,355,VALID,0,
2009-12-09, 03:12:04,VALID,1003.56,VALID,0,VALID,90.3641,VALID,0.100563,VALID,24.3228,VALID,355,VALID,0,
2009-12-09, 03:13:04,VALID,1003.57,VALID,0,VALID,90.5853,VALID,0,VALID,24.2875,VALID,355,VALID,0,
2009-12-09, 03:14:04,VALID,1003.59,VALID,0,VALID,90.7913,VALID,0,VALID,24.2078,VALID,355,VALID,0,
2009-12-09, 03:15:04,VALID,1003.59,VALID,0,VALID,90.982,VALID,0,VALID,24.1902,VALID,355,VALID,0,
2009-12-09, 03:16:04,VALID,1003.58,VALID,0,VALID,91.1193,VALID,0,VALID,24.1707,VALID,355,VALID,0,
2009-12-09, 03:17:04,VALID,1003.55,VALID,0,VALID,91.3177,VALID,0,VALID,24.1318,VALID,355,VALID,0,
2009-12-09, 03:18:04,VALID,1003.54,VALID,0,VALID,91.5542,VALID,0,VALID,24.0929,VALID,355,VALID,0,
2009-12-09, 03:19:04,VALID,1003.59,VALID,0,VALID,91.7144,VALID,0,VALID,24.0521,VALID,355,VALID,0,
2009-12-09, 03:20:04,VALID,1003.59,VALID,0,VALID,91.8746,VALID,0,VALID,24.0345,VALID,355,VALID,0,
2009-12-09, 03:21:04,VALID,1003.6,VALID,0,VALID,92.0119,VALID,0,VALID,24.015,VALID,355,VALID,0,
2009-12-09, 03:22:04,VALID,1003.61,VALID,0,VALID,92.1798,VALID,0,VALID,23.9955,VALID,355,VALID,0,
2009-12-09, 03:23:04,VALID,1003.62,VALID,0,VALID,92.34,VALID,0,VALID,23.9955,VALID,355,VALID,0,
2009-12-09, 03:24:04,VALID,1003.62,VALID,0,VALID,92.4544,VALID,0,VALID,23.9955,VALID,355,VALID,0,
2009-12-09, 03:25:04,VALID,1003.61,VALID,0,VALID,92.5154,VALID,0,VALID,23.9761,VALID,355,VALID,0,
2009-12-09, 03:26:04,VALID,1003.64,VALID,0,VALID,92.5917,VALID,0,VALID,23.9566,VALID,355,VALID,0,
2009-12-09, 03:27:04,VALID,1003.64,VALID,0,VALID,92.6833,VALID,0,VALID,23.9371,VALID,355,VALID,0,
2009-12-09, 03:28:04,VALID,1003.64,VALID,0,VALID,92.7596,VALID,0.100563,VALID,23.9353,VALID,355,VALID,0,
2009-12-09, 03:29:04,VALID,1003.63,VALID,0,VALID,92.8282,VALID,0.100563,VALID,23.8751,VALID,355,VALID,0,
2009-12-09, 03:30:04,VALID,1003.66,VALID,0,VALID,92.8664,VALID,0.100563,VALID,23.8964,VALID,355,VALID,0,
2009-12-09, 03:31:04,VALID,1003.66,VALID,0,VALID,92.9198,VALID,0.100563,VALID,23.8982,VALID,355,VALID,0,
2009-12-09, 03:32:04,VALID,1003.64,VALID,0,VALID,92.9579,VALID,0.100563,VALID,23.8575,VALID,355,VALID,0,
2009-12-09, 03:33:04,VALID,1003.63,VALID,0,VALID,93.0342,VALID,0,VALID,23.8593,VALID,355,VALID,0,
2009-12-09, 03:34:04,VALID,1003.62,VALID,0,VALID,93.1181,VALID,0.100563,VALID,23.8575,VALID,355,VALID,0.0410156,
2009-12-09, 03:35:04,VALID,1003.63,VALID,0,VALID,93.2173,VALID,0.100563,VALID,23.838,VALID,358,VALID,0.511328,
2009-12-09, 03:36:04,VALID,1003.61,VALID,0,VALID,93.3165,VALID,0,VALID,23.838,VALID,358,VALID,0.646484,
2009-12-09, 03:37:04,VALID,1003.63,VALID,0,VALID,93.408,VALID,0.100563,VALID,23.838,VALID,358,VALID,0.582422,
2009-12-09, 03:38:04,VALID,1003.61,VALID,0,VALID,93.4309,VALID,0.100563,VALID,23.8185,VALID,358,VALID,0.530859,
2009-12-09, 03:39:04,VALID,1003.6,VALID,0,VALID,93.4385,VALID,0,VALID,23.7796,VALID,358,VALID,0.378125,
2009-12-09, 03:40:04,VALID,1003.6,VALID,0,VALID,93.4309,VALID,0,VALID,23.7601,VALID,358,VALID,0,
2009-12-09, 03:41:04,VALID,1003.59,VALID,0,VALID,93.5072,VALID,0,VALID,23.7601,VALID,358,VALID,0,
2009-12-09, 03:42:04,VALID,1003.6,VALID,0,VALID,93.5682,VALID,0.100563,VALID,23.7796,VALID,358,VALID,0,
2009-12-09, 03:43:04,VALID,1003.56,VALID,0,VALID,93.6521,VALID,0,VALID,23.7991,VALID,358,VALID,0,
2009-12-09, 03:44:04,VALID,1003.56,VALID,0,VALID,93.7513,VALID,0.100563,VALID,23.8167,VALID,358,VALID,0,
2009-12-09, 03:45:04,VALID,1003.56,VALID,0,VALID,93.7818,VALID,0.100563,VALID,23.8575,VALID,358,VALID,0,